AMX005 MMMX-LFPG

Flight info

Callsign AMX005
Flight time N/A
Altitude 35000
Route IKLAN2A IKLAN UT140 TAM UM575 CLONN M575 TBD DCT SJI Q56 CATLN Q22 BEARI DCT FAK DCT RBV DCT JFK DCT ENE DCT DANOL DCT NEEKO/M086F350 NATZ GISTI/N0497F350 DCT CRK DCT NORLA DCT PEWBI DCT OXLOW DCT SFD UM605 BIBAX
Aircraft B789/H-SDE1E2E3FGHIJ2J3J4J5M1RWXY/LB1D1

Departure

Time 2026-04-30 21:33
Airport Mexico City Benito Juárez International Airport (MMMX)

Arrival

Time N/A
Airport Charles de Gaulle International Airport (LFPG)
Time Latitude Longitude Altitude Speed Heading
2026-04-30 21:04 19.42326 -99.08041 7308 ft 0 kts 185°
2026-04-30 21:27 19.42324 -99.08041 7317 ft 0 kts 191°
2026-04-30 21:27 19.42323 -99.08043 7308 ft 0 kts 202°
2026-04-30 21:28 19.42321 -99.08045 7308 ft 0 kts 223°
2026-04-30 21:28 19.42320 -99.08047 7308 ft 0 kts 234°
2026-04-30 21:28 19.42320 -99.08051 7308 ft 0 kts 257°
2026-04-30 21:29 19.42321 -99.08053 7308 ft 0 kts 268°
2026-04-30 21:29 19.42330 -99.08062 7308 ft 2 kts 329°
2026-04-30 21:30 19.42405 -99.08142 7308 ft 7 kts 279°
2026-04-30 21:31 19.42499 -99.08273 7308 ft 14 kts 334°
2026-04-30 21:31 19.42690 -99.08378 7308 ft 17 kts 330°
2026-04-30 21:32 19.42865 -99.08291 7308 ft 40 kts 59°
2026-04-30 21:32 19.43076 -99.07912 7309 ft 78 kts 59°
2026-04-30 21:32 19.43417 -99.07305 7308 ft 113 kts 59°
2026-04-30 21:32 19.43871 -99.06492 7308 ft 149 kts 58°
2026-04-30 21:33 19.44473 -99.05414 7315 ft 188 kts 62°
2026-04-30 21:33 19.45881 -99.03116 8224 ft 194 kts 58°
2026-04-30 21:33 19.46636 -99.01919 8599 ft 196 kts 57°
2026-04-30 21:34 19.47382 -99.00676 8861 ft 204 kts 57°
2026-04-30 21:34 19.48923 -98.98052 9181 ft 218 kts 58°
2026-04-30 21:34 19.49664 -98.96604 9294 ft 230 kts 64°
2026-04-30 21:35 19.50520 -98.95117 9405 ft 245 kts 58°
2026-04-30 21:35 19.51485 -98.93531 9454 ft 268 kts 59°
2026-04-30 21:35 19.52473 -98.91778 9619 ft 284 kts 61°
2026-04-30 21:35 19.53577 -98.89969 9757 ft 303 kts 46°
2026-04-30 21:36 19.55111 -98.88420 10122 ft 314 kts 48°
2026-04-30 21:36 19.56544 -98.86646 10291 ft 314 kts 52°
2026-04-30 21:37 19.60924 -98.81520 11392 ft 315 kts 48°
2026-04-30 21:37 19.62410 -98.79806 11766 ft 316 kts 48°
2026-04-30 21:37 19.63893 -98.78075 12114 ft 319 kts 48°
2026-04-30 21:37 19.65394 -98.76339 12458 ft 317 kts 48°
2026-04-30 21:38 19.66888 -98.74618 12928 ft 320 kts 48°
2026-04-30 21:38 19.68400 -98.72871 13416 ft 322 kts 48°
2026-04-30 21:38 19.69965 -98.71155 13877 ft 324 kts 38°
2026-04-30 21:38 19.71970 -98.70070 14373 ft 327 kts 15°
2026-04-30 21:39 19.74227 -98.69784 14870 ft 329 kts
2026-04-30 21:39 19.76525 -98.69616 15350 ft 332 kts
2026-04-30 21:39 19.78833 -98.69462 15823 ft 333 kts
2026-04-30 21:39 19.81150 -98.69312 16303 ft 335 kts
2026-04-30 21:40 19.83491 -98.69154 16783 ft 337 kts
2026-04-30 21:40 19.85811 -98.68997 17262 ft 339 kts
2026-04-30 21:40 19.88179 -98.68837 17753 ft 342 kts
2026-04-30 21:40 19.90561 -98.68677 18225 ft 344 kts
2026-04-30 21:41 19.92963 -98.68516 18651 ft 347 kts
2026-04-30 21:41 19.95381 -98.68396 19097 ft 348 kts 356°
2026-04-30 21:41 19.97708 -98.69003 19600 ft 346 kts 333°
2026-04-30 21:41 19.99715 -98.70389 20099 ft 344 kts 323°
2026-04-30 21:42 20.01662 -98.71879 20577 ft 344 kts 323°
2026-04-30 21:42 20.03604 -98.73378 21048 ft 345 kts 323°
2026-04-30 21:42 20.05541 -98.74879 21541 ft 344 kts 323°
2026-04-30 21:42 20.07479 -98.76377 22009 ft 344 kts 323°
2026-04-30 21:43 20.09413 -98.77870 22501 ft 343 kts 323°
2026-04-30 21:43 20.11338 -98.79357 22997 ft 342 kts 323°
2026-04-30 21:43 20.13232 -98.80822 23462 ft 340 kts 323°
2026-04-30 21:43 20.15142 -98.82299 23881 ft 338 kts 323°
2026-04-30 21:44 20.17028 -98.83773 24308 ft 335 kts 322°
2026-04-30 21:44 20.18898 -98.85245 24728 ft 332 kts 322°
2026-04-30 21:44 20.20753 -98.86701 25157 ft 329 kts 323°
2026-04-30 21:44 20.22601 -98.88139 25589 ft 326 kts 325°
2026-04-30 21:45 20.24638 -98.89095 26044 ft 319 kts 347°
2026-04-30 21:45 20.26873 -98.89315 26124 ft 329 kts
2026-04-30 21:45 20.29197 -98.89249 26154 ft 339 kts 359°
2026-04-30 21:45 20.31601 -98.89214 26203 ft 349 kts 359°
2026-04-30 21:46 20.34035 -98.89190 26270 ft 359 kts 359°
2026-04-30 21:46 20.36570 -98.89158 26330 ft 369 kts 359°
2026-04-30 21:46 20.39175 -98.89121 26399 ft 379 kts 359°
2026-04-30 21:46 20.41846 -98.89066 26467 ft 388 kts
2026-04-30 21:47 20.44503 -98.88429 26597 ft 397 kts 22°
2026-04-30 21:47 20.47017 -98.87124 26694 ft 406 kts 25°
2026-04-30 21:47 20.49549 -98.85713 26775 ft 415 kts 26°
2026-04-30 21:47 20.52100 -98.84291 26808 ft 423 kts 25°
2026-04-30 21:48 20.54751 -98.82850 26880 ft 431 kts 25°
2026-04-30 21:48 20.57454 -98.81388 26934 ft 439 kts 25°
2026-04-30 21:48 20.60198 -98.79883 26994 ft 447 kts 25°
2026-04-30 21:48 20.62979 -98.78351 27029 ft 454 kts 25°
2026-04-30 21:49 20.65818 -98.76795 27081 ft 461 kts 25°
2026-04-30 21:49 20.68694 -98.75226 27143 ft 467 kts 25°
2026-04-30 21:49 20.71609 -98.73629 27172 ft 474 kts 25°
2026-04-30 21:49 20.74560 -98.72008 27198 ft 479 kts 25°
2026-04-30 21:50 20.77547 -98.70368 27231 ft 485 kts 25°
2026-04-30 21:50 20.80554 -98.68718 27411 ft 486 kts 25°
2026-04-30 21:50 20.83568 -98.67065 27629 ft 488 kts 25°
2026-04-30 21:50 20.86592 -98.65403 27826 ft 489 kts 25°
2026-04-30 21:51 20.89629 -98.63732 28016 ft 491 kts 25°
2026-04-30 21:51 20.92627 -98.62084 28196 ft 492 kts 25°
2026-04-30 21:51 20.95684 -98.60403 28363 ft 494 kts 25°
2026-04-30 21:51 20.98747 -98.58717 28568 ft 495 kts 25°
2026-04-30 21:52 21.01813 -98.57028 28763 ft 496 kts 25°
2026-04-30 21:52 21.04890 -98.55333 28945 ft 498 kts 25°
2026-04-30 21:52 21.07974 -98.53634 29136 ft 499 kts 25°
2026-04-30 21:52 21.11073 -98.51925 29312 ft 500 kts 25°
2026-04-30 21:53 21.14173 -98.50214 29491 ft 502 kts 25°
2026-04-30 21:53 21.17284 -98.48498 29662 ft 504 kts 25°
2026-04-30 21:53 21.20400 -98.46777 29851 ft 505 kts 25°
2026-04-30 21:53 21.23531 -98.45047 30007 ft 506 kts 25°
2026-04-30 21:54 21.26669 -98.43312 30183 ft 507 kts 25°
2026-04-30 21:54 21.29772 -98.41597 30354 ft 508 kts 25°
2026-04-30 21:54 21.32921 -98.39855 30508 ft 510 kts 25°
2026-04-30 21:54 21.36079 -98.38107 30658 ft 511 kts 25°
2026-04-30 21:55 21.39239 -98.36356 30835 ft 512 kts 25°
2026-04-30 21:55 21.42407 -98.34601 30982 ft 513 kts 25°
2026-04-30 21:55 21.45575 -98.32845 31195 ft 513 kts 25°
2026-04-30 21:55 21.48744 -98.31087 31432 ft 512 kts 25°
2026-04-30 21:56 21.51905 -98.29333 31667 ft 512 kts 24°
2026-04-30 21:56 21.55067 -98.27577 31912 ft 511 kts 24°
2026-04-30 21:56 21.58223 -98.25825 32156 ft 510 kts 24°
2026-04-30 21:56 21.61375 -98.24073 32419 ft 509 kts 24°
2026-04-30 21:57 21.64521 -98.22324 32676 ft 509 kts 24°
2026-04-30 21:57 21.67663 -98.20576 32939 ft 508 kts 24°
2026-04-30 21:57 21.70799 -98.18831 33209 ft 507 kts 24°
2026-04-30 21:57 21.73932 -98.17086 33458 ft 507 kts 24°
2026-04-30 21:58 21.77063 -98.15342 33719 ft 506 kts 24°
2026-04-30 21:58 21.80187 -98.13601 33915 ft 505 kts 24°
2026-04-30 21:58 21.83283 -98.11875 34146 ft 505 kts 24°
2026-04-30 21:58 21.86401 -98.10135 34357 ft 504 kts 24°
2026-04-30 21:59 21.89515 -98.08396 34567 ft 504 kts 24°
2026-04-30 21:59 21.92633 -98.06655 34728 ft 505 kts 24°
2026-04-30 22:00 22.02028 -98.01402 34731 ft 504 kts 24°
2026-04-30 22:00 22.11360 -97.96179 34751 ft 503 kts 24°
2026-04-30 22:01 22.17531 -97.92719 34763 ft 502 kts 24°
2026-04-30 22:01 22.23738 -97.89237 34778 ft 502 kts 24°
2026-04-30 22:02 22.29883 -97.85686 34762 ft 504 kts 30°
2026-04-30 22:02 22.35805 -97.81640 34756 ft 506 kts 29°
2026-04-30 22:03 22.41763 -97.77582 34756 ft 506 kts 29°
2026-04-30 22:03 22.47712 -97.73521 34768 ft 506 kts 29°
2026-04-30 22:04 22.53673 -97.69450 34757 ft 506 kts 29°
2026-04-30 22:05 22.62592 -97.63348 34768 ft 505 kts 29°
2026-04-30 22:05 22.68530 -97.59281 34771 ft 505 kts 29°
2026-04-30 22:06 22.74438 -97.55229 34766 ft 506 kts 29°
2026-04-30 22:06 22.83338 -97.49118 34774 ft 502 kts 29°
2026-04-30 22:07 22.89248 -97.45056 34775 ft 503 kts 29°
2026-04-30 22:07 22.95174 -97.40977 34767 ft 504 kts 29°
2026-04-30 22:08 23.01049 -97.36929 34761 ft 503 kts 29°